Location: Filler
(36.7551°N, 30.4456°E)
Time: 08:01:37
(UTC+00:00)

Cosmos 1605 Rocket - Pass Details

Date: 19 June 2024
Orbit: 944 x 1005 km, 82.9° (Epoch: 22 July)

Event Time Altitude Azimuth Distance (km) Brightness Sun altitude
Exits shadow 01:10:48 18° 201° (SSW) 2,167 5.3 -14.8°
Maximum altitude 01:15:26 63° 278° (W) 1,069 4.0 -14.2°
Drops below altitude 10° 01:21:30 10° 359° (N) 2,682 6.9 -13.3°
Sets 01:24:01 0° 3° (N) 3,626 7.7 -12.9°
